AXB125Q VOMM-VECC

Flight info

Callsign AXB125Q
Flight time 1h 49m
Altitude 35000
Route DOKET2A DOKET A465 VVZ W90 LARIK A465 KAKID KAKID2A
Aircraft B738/M-SDE2E3FGHIRWXY/LB1

Departure

Time 2026-04-21 12:44
Airport Chennai International Airport (VOMM)

Arrival

Time 2026-04-21 14:34
Airport Netaji Subhash Chandra Bose International Airport (VECC)
Time Latitude Longitude Altitude Speed Heading
2026-04-21 12:08 12.98452 80.16564 54 ft 0 kts 159°
2026-04-21 12:34 12.98457 80.16563 54 ft 2 kts 159°
2026-04-21 12:34 12.98473 80.16557 51 ft 2 kts 159°
2026-04-21 12:34 12.98488 80.16551 40 ft 2 kts 159°
2026-04-21 12:34 12.98504 80.16549 55 ft 2 kts 202°
2026-04-21 12:35 12.98515 80.16560 54 ft 2 kts 245°
2026-04-21 12:35 12.98520 80.16571 50 ft 0 kts 248°
2026-04-21 12:38 12.98519 80.16570 54 ft 1 kts 248°
2026-04-21 12:38 12.98513 80.16554 49 ft 4 kts 248°
2026-04-21 12:38 12.98498 80.16516 50 ft 7 kts 249°
2026-04-21 12:39 12.98478 80.16461 53 ft 9 kts 249°
2026-04-21 12:39 12.98463 80.16420 54 ft 9 kts 249°
2026-04-21 12:39 12.98428 80.16321 50 ft 13 kts 250°
2026-04-21 12:39 12.98395 80.16229 50 ft 14 kts 250°
2026-04-21 12:40 12.98362 80.16137 54 ft 13 kts 250°
2026-04-21 12:40 12.98328 80.16046 53 ft 14 kts 248°
2026-04-21 12:40 12.98291 80.15951 54 ft 15 kts 255°
2026-04-21 12:40 12.98297 80.15879 54 ft 15 kts 285°
2026-04-21 12:41 12.98323 80.15790 53 ft 11 kts 287°
2026-04-21 12:41 12.98354 80.15677 54 ft 13 kts 285°
2026-04-21 12:41 12.98379 80.15584 53 ft 14 kts 285°
2026-04-21 12:41 12.98386 80.15557 49 ft 0 kts 286°
2026-04-21 12:42 12.98387 80.15557 49 ft 0 kts 286°
2026-04-21 12:42 12.98390 80.15544 53 ft 4 kts 286°
2026-04-21 12:43 12.98403 80.15497 50 ft 10 kts 285°
2026-04-21 12:43 12.98457 80.15457 52 ft 12 kts 11°
2026-04-21 12:43 12.98490 80.15495 55 ft 1 kts 65°
2026-04-21 12:43 12.98534 80.15612 52 ft 55 kts 69°
2026-04-21 12:44 12.98774 80.16254 55 ft 136 kts 69°
2026-04-21 12:44 12.99190 80.17363 240 ft 189 kts 72°
2026-04-21 12:44 12.99661 80.18744 783 ft 215 kts 75°
2026-04-21 12:44 13.00206 80.20231 1555 ft 224 kts 67°
2026-04-21 12:45 13.01255 80.21416 2449 ft 231 kts 37°
2026-04-21 12:45 13.02637 80.22352 2848 ft 248 kts 34°
2026-04-21 12:45 13.04148 80.23367 3091 ft 270 kts 34°
2026-04-21 12:45 13.05721 80.24455 3800 ft 272 kts 35°
2026-04-21 12:46 13.07261 80.25553 4754 ft 268 kts 36°
2026-04-21 12:46 13.08781 80.26661 5412 ft 268 kts 37°
2026-04-21 12:46 13.10284 80.27776 5737 ft 268 kts 37°
2026-04-21 12:46 13.11820 80.28930 5763 ft 279 kts 37°
2026-04-21 12:47 13.13389 80.30118 5782 ft 278 kts 38°
2026-04-21 12:47 13.14883 80.31255 6147 ft 260 kts 38°
2026-04-21 12:47 13.16344 80.32369 6508 ft 267 kts 38°
2026-04-21 12:47 13.17843 80.33516 6858 ft 271 kts 38°
2026-04-21 12:48 13.19356 80.34673 7206 ft 271 kts 38°
2026-04-21 12:48 13.20870 80.35833 7567 ft 273 kts 38°
2026-04-21 12:48 13.22388 80.36997 7915 ft 271 kts 38°
2026-04-21 12:48 13.23895 80.38152 8403 ft 272 kts 38°
2026-04-21 12:49 13.25423 80.39325 8898 ft 276 kts 38°
2026-04-21 12:49 13.26970 80.40513 9404 ft 281 kts 38°
2026-04-21 12:49 13.28548 80.41723 9889 ft 283 kts 38°
2026-04-21 12:49 13.30118 80.42928 10339 ft 282 kts 38°
2026-04-21 12:50 13.31695 80.44136 10696 ft 290 kts 38°
2026-04-21 12:50 13.33384 80.45428 10856 ft 313 kts 37°
2026-04-21 12:50 13.35195 80.46813 11001 ft 335 kts 38°
2026-04-21 12:50 13.37102 80.48271 11327 ft 347 kts 37°
2026-04-21 12:51 13.39069 80.49774 11715 ft 357 kts 37°
2026-04-21 12:51 13.41046 80.51286 12267 ft 361 kts 37°
2026-04-21 12:51 13.43063 80.52828 12884 ft 363 kts 37°
2026-04-21 12:51 13.45097 80.54383 13447 ft 366 kts 37°
2026-04-21 12:52 13.47144 80.55950 14008 ft 369 kts 37°
2026-04-21 12:52 13.49213 80.57533 14477 ft 373 kts 37°
2026-04-21 12:52 13.51304 80.59134 14938 ft 377 kts 37°
2026-04-21 12:52 13.53414 80.60753 15356 ft 382 kts 37°
2026-04-21 12:53 13.55380 80.62309 15909 ft 382 kts 38°
2026-04-21 12:53 13.57473 80.64006 16253 ft 389 kts 38°
2026-04-21 12:53 13.59598 80.65744 16736 ft 392 kts 38°
2026-04-21 12:53 13.61744 80.67502 17138 ft 397 kts 38°
2026-04-21 12:54 13.63912 80.69275 17530 ft 402 kts 38°
2026-04-21 12:54 13.66116 80.71074 17975 ft 405 kts 38°
2026-04-21 12:54 13.68327 80.72876 18338 ft 409 kts 38°
2026-04-21 12:54 13.70568 80.74700 18688 ft 412 kts 38°
2026-04-21 12:55 13.72827 80.76538 19039 ft 416 kts 38°
2026-04-21 12:55 13.75108 80.78394 19385 ft 419 kts 38°
2026-04-21 12:55 13.77403 80.80262 19718 ft 423 kts 38°
2026-04-21 12:55 13.79716 80.82144 20070 ft 426 kts 38°
2026-04-21 12:56 13.82052 80.84046 20380 ft 430 kts 38°
2026-04-21 12:56 13.84418 80.85972 20719 ft 433 kts 38°
2026-04-21 12:56 13.86791 80.87904 21055 ft 436 kts 38°
2026-04-21 12:56 13.89182 80.89851 21370 ft 439 kts 38°
2026-04-21 12:57 13.91584 80.91808 21693 ft 442 kts 38°
2026-04-21 12:57 13.93999 80.93778 22069 ft 444 kts 38°
2026-04-21 12:57 13.96431 80.95760 22341 ft 448 kts 38°
2026-04-21 12:57 13.98875 80.97754 22710 ft 449 kts 38°
2026-04-21 12:58 14.01328 80.99755 23030 ft 452 kts 38°
2026-04-21 12:58 14.03802 81.01774 23295 ft 455 kts 38°
2026-04-21 12:58 14.06274 81.03792 23573 ft 457 kts 38°
2026-04-21 12:58 14.08775 81.05834 23851 ft 458 kts 38°
2026-04-21 12:59 14.11276 81.07877 24107 ft 460 kts 38°
2026-04-21 12:59 14.13792 81.09932 24360 ft 462 kts 38°
2026-04-21 12:59 14.16305 81.11986 24602 ft 465 kts 38°
2026-04-21 12:59 14.18852 81.14068 24815 ft 467 kts 38°
2026-04-21 13:00 14.21407 81.16157 25036 ft 470 kts 38°
2026-04-21 13:00 14.23971 81.18254 25272 ft 472 kts 38°
2026-04-21 13:00 14.26548 81.20362 25498 ft 474 kts 38°
2026-04-21 13:00 14.29138 81.22482 25715 ft 476 kts 38°
2026-04-21 13:01 14.31740 81.24613 25924 ft 479 kts 38°
2026-04-21 13:01 14.34355 81.26754 26137 ft 481 kts 38°
2026-04-21 13:01 14.36984 81.28907 26339 ft 483 kts 38°
2026-04-21 13:01 14.39586 81.31040 26550 ft 486 kts 38°
2026-04-21 13:02 14.42273 81.33242 26753 ft 488 kts 38°
2026-04-21 13:02 14.44939 81.35428 26962 ft 490 kts 38°
2026-04-21 13:02 14.50256 81.39790 27367 ft 494 kts 38°
2026-04-21 13:03 14.52992 81.42036 27566 ft 496 kts 38°
2026-04-21 13:03 14.55698 81.44257 27751 ft 498 kts 38°
2026-04-21 13:03 14.58412 81.46486 27945 ft 500 kts 38°
2026-04-21 13:03 14.61109 81.48702 28115 ft 502 kts 38°
2026-04-21 13:04 14.63846 81.50951 28290 ft 504 kts 38°
2026-04-21 13:04 14.66594 81.53209 28464 ft 506 kts 38°
2026-04-21 13:04 14.69355 81.55480 28648 ft 508 kts 38°
2026-04-21 13:04 14.72127 81.57761 28801 ft 510 kts 38°
2026-04-21 13:05 14.74908 81.60049 28965 ft 512 kts 38°
2026-04-21 13:05 14.77698 81.62346 29137 ft 514 kts 38°
2026-04-21 13:05 14.80499 81.64652 29287 ft 516 kts 38°
2026-04-21 13:05 14.83309 81.66967 29483 ft 517 kts 38°
2026-04-21 13:06 14.86119 81.69283 29743 ft 516 kts 38°
2026-04-21 13:06 14.88925 81.71596 29964 ft 516 kts 38°
2026-04-21 13:06 14.91732 81.73911 30185 ft 516 kts 38°
2026-04-21 13:06 14.94537 81.76225 30404 ft 516 kts 38°
2026-04-21 13:07 14.97342 81.78540 30636 ft 515 kts 38°
2026-04-21 13:07 15.00136 81.80846 30864 ft 515 kts 38°
2026-04-21 13:07 15.02940 81.83162 31087 ft 515 kts 38°
2026-04-21 13:07 15.05740 81.85476 31307 ft 515 kts 38°
2026-04-21 13:08 15.08531 81.87782 31537 ft 515 kts 38°
2026-04-21 13:08 15.11327 81.90093 31783 ft 514 kts 38°
2026-04-21 13:08 15.14126 81.92406 32015 ft 514 kts 38°
2026-04-21 13:08 15.16922 81.94718 32233 ft 514 kts 38°
2026-04-21 13:09 15.19718 81.97031 32460 ft 514 kts 38°
2026-04-21 13:09 15.22515 81.99346 32696 ft 514 kts 38°
2026-04-21 13:09 15.25307 82.01657 32941 ft 514 kts 38°
2026-04-21 13:09 15.28097 82.03969 33179 ft 514 kts 39°
2026-04-21 13:10 15.30888 82.06282 33411 ft 514 kts 39°
2026-04-21 13:10 15.33675 82.08593 33617 ft 514 kts 39°
2026-04-21 13:10 15.36473 82.10912 33845 ft 514 kts 39°
2026-04-21 13:10 15.39265 82.13226 34038 ft 514 kts 39°
2026-04-21 13:11 15.42055 82.15541 34254 ft 514 kts 39°
2026-04-21 13:11 15.44844 82.17855 34466 ft 513 kts 39°
2026-04-21 13:11 15.47631 82.20168 34659 ft 513 kts 39°
2026-04-21 13:11 15.50415 82.22481 34811 ft 514 kts 39°
2026-04-21 13:12 15.56025 82.27144 34816 ft 517 kts 39°
2026-04-21 13:12 15.61622 82.31800 34805 ft 513 kts 39°
2026-04-21 13:13 15.67173 82.36418 34806 ft 510 kts 39°
2026-04-21 13:13 15.72700 82.41018 34814 ft 509 kts 39°
2026-04-21 13:14 15.78217 82.45615 34816 ft 508 kts 39°
2026-04-21 13:14 15.83731 82.50214 34820 ft 509 kts 39°
2026-04-21 13:15 15.89260 82.54828 34818 ft 511 kts 39°
2026-04-21 13:15 15.94809 82.59463 34822 ft 513 kts 39°
2026-04-21 13:16 16.00380 82.64120 34820 ft 515 kts 39°
2026-04-21 13:16 16.05937 82.68768 34823 ft 517 kts 39°
2026-04-21 13:17 16.11544 82.73461 34820 ft 518 kts 39°
2026-04-21 13:17 16.17166 82.78171 34818 ft 519 kts 39°
2026-04-21 13:18 16.22795 82.82890 34827 ft 520 kts 39°
2026-04-21 13:18 16.28420 82.87609 34822 ft 519 kts 39°
2026-04-21 13:19 16.34042 82.92330 34817 ft 519 kts 39°
2026-04-21 13:19 16.39654 82.97046 34813 ft 518 kts 39°
2026-04-21 13:20 16.45256 83.01758 34813 ft 517 kts 39°
2026-04-21 13:20 16.50854 83.06467 34819 ft 517 kts 39°
2026-04-21 13:21 16.56443 83.11172 34819 ft 516 kts 39°
2026-04-21 13:21 16.62027 83.15877 34814 ft 516 kts 39°
2026-04-21 13:22 16.67616 83.20591 34816 ft 516 kts 39°
2026-04-21 13:22 16.73201 83.25306 34813 ft 517 kts 39°
2026-04-21 13:23 16.78786 83.30024 34820 ft 517 kts 39°
2026-04-21 13:23 16.84382 83.34755 34819 ft 518 kts 39°
2026-04-21 13:24 16.89975 83.39487 34813 ft 518 kts 38°
2026-04-21 13:24 16.95583 83.44236 34808 ft 519 kts 38°
2026-04-21 13:25 17.01180 83.48979 34810 ft 519 kts 38°
2026-04-21 13:25 17.06795 83.53742 34814 ft 520 kts 38°
2026-04-21 13:26 17.12412 83.58510 34804 ft 520 kts 38°
2026-04-21 13:26 17.17079 83.62474 34802 ft 520 kts 38°
2026-04-21 13:27 17.22696 83.67249 34807 ft 520 kts 38°
2026-04-21 13:27 17.28309 83.72026 34801 ft 520 kts 38°
2026-04-21 13:28 17.33921 83.76802 34802 ft 520 kts 38°
2026-04-21 13:28 17.39534 83.81583 34796 ft 520 kts 38°
2026-04-21 13:29 17.45144 83.86366 34800 ft 520 kts 38°
2026-04-21 13:29 17.50741 83.91143 34806 ft 519 kts 38°
2026-04-21 13:30 17.56341 83.95926 34797 ft 519 kts 38°
2026-04-21 13:30 17.61939 84.00713 34804 ft 519 kts 38°
2026-04-21 13:31 17.67533 84.05499 34795 ft 519 kts 38°
2026-04-21 13:31 17.73119 84.10282 34803 ft 519 kts 38°
2026-04-21 13:32 17.78711 84.15074 34799 ft 519 kts 38°
2026-04-21 13:32 17.84301 84.19870 34794 ft 519 kts 38°
2026-04-21 13:33 17.89864 84.24645 34796 ft 520 kts 38°
2026-04-21 13:33 17.95461 84.29454 34794 ft 520 kts 38°
2026-04-21 13:34 18.01061 84.34269 34787 ft 521 kts 38°
2026-04-21 13:34 18.06668 84.39095 34790 ft 521 kts 38°
2026-04-21 13:35 18.12277 84.43926 34799 ft 522 kts 38°
2026-04-21 13:35 18.17891 84.48766 34788 ft 522 kts 38°
2026-04-21 13:36 18.23511 84.53616 34789 ft 523 kts 38°
2026-04-21 13:36 18.29135 84.58472 34787 ft 523 kts 38°
2026-04-21 13:37 18.34758 84.63333 34786 ft 523 kts 38°
2026-04-21 13:37 18.40384 84.68200 34791 ft 523 kts 38°
2026-04-21 13:38 18.46012 84.73073 34774 ft 524 kts 38°
2026-04-21 13:38 18.51638 84.77949 34763 ft 524 kts 38°
2026-04-21 13:39 18.57271 84.82835 34776 ft 532 kts 38°
2026-04-21 13:39 18.63061 84.87861 34780 ft 539 kts 38°
2026-04-21 13:40 18.68870 84.92911 34769 ft 541 kts 38°
2026-04-21 13:40 18.74682 84.97967 34775 ft 542 kts 38°
2026-04-21 13:41 18.80501 85.03031 34778 ft 543 kts 38°
2026-04-21 13:41 18.86331 85.08110 34775 ft 543 kts 38°
2026-04-21 13:42 18.92155 85.13190 34774 ft 543 kts 38°
2026-04-21 13:42 18.97984 85.18279 34771 ft 543 kts 38°
2026-04-21 13:43 19.03763 85.23331 34769 ft 543 kts 38°
2026-04-21 13:43 19.09574 85.28413 34767 ft 543 kts 38°
2026-04-21 13:44 19.15394 85.33507 34762 ft 543 kts 38°
2026-04-21 13:44 19.21200 85.38595 34765 ft 542 kts 38°
2026-04-21 13:45 19.27006 85.43693 34762 ft 542 kts 39°
2026-04-21 13:45 19.32365 85.49324 34765 ft 543 kts 46°
2026-04-21 13:46 19.37494 85.55194 34761 ft 543 kts 46°
2026-04-21 13:46 19.42601 85.61022 34759 ft 543 kts 46°
2026-04-21 13:47 19.47774 85.66860 34757 ft 543 kts 45°
2026-04-21 13:47 19.52963 85.72695 34756 ft 544 kts 45°
2026-04-21 13:48 19.58152 85.78538 34755 ft 544 kts 45°
2026-04-21 13:48 19.63337 85.84389 34755 ft 544 kts 45°
2026-04-21 13:49 19.68518 85.90242 34755 ft 544 kts 45°
2026-04-21 13:49 19.73703 85.96106 34756 ft 544 kts 45°
2026-04-21 13:50 19.78881 86.01967 34759 ft 544 kts 45°
2026-04-21 13:50 19.84050 86.07825 34759 ft 544 kts 45°
2026-04-21 13:51 19.89217 86.13687 34755 ft 543 kts 45°
2026-04-21 13:51 19.94310 86.19545 34762 ft 543 kts 46°
2026-04-21 13:52 19.99355 86.25521 34760 ft 543 kts 47°
2026-04-21 13:52 20.04397 86.31475 34759 ft 542 kts 46°
2026-04-21 13:53 20.09505 86.37368 34755 ft 540 kts 45°
2026-04-21 13:53 20.14654 86.43170 34755 ft 539 kts 45°
2026-04-21 13:54 20.19791 86.48969 34756 ft 538 kts 45°
2026-04-21 13:54 20.24908 86.54781 34753 ft 537 kts 46°
2026-04-21 13:55 20.30008 86.60591 34752 ft 536 kts 46°
2026-04-21 13:55 20.35099 86.66397 34751 ft 535 kts 46°
2026-04-21 13:56 20.40179 86.72192 34743 ft 535 kts 46°
2026-04-21 13:56 20.45251 86.77985 34748 ft 534 kts 46°
2026-04-21 13:57 20.50321 86.83782 34746 ft 534 kts 46°
2026-04-21 13:57 20.55381 86.89573 34751 ft 533 kts 46°
2026-04-21 13:58 20.60422 86.95351 34749 ft 532 kts 46°
2026-04-21 13:58 20.64990 87.01502 34742 ft 529 kts 65°
2026-04-21 13:59 20.67567 87.08821 34758 ft 527 kts 72°
2026-04-21 13:59 20.69950 87.16236 34746 ft 527 kts 71°
2026-04-21 14:00 20.72414 87.23623 34751 ft 528 kts 71°
2026-04-21 14:00 20.74922 87.30977 34757 ft 528 kts 71°
2026-04-21 14:01 20.77440 87.38369 34750 ft 529 kts 71°
2026-04-21 14:01 20.79944 87.45759 34762 ft 530 kts 71°
2026-04-21 14:02 20.83387 87.52665 34772 ft 528 kts 46°
2026-04-21 14:03 20.91103 87.61006 34757 ft 529 kts 43°
2026-04-21 14:03 20.96311 87.66556 34753 ft 528 kts 43°
2026-04-21 14:04 21.01445 87.72161 34753 ft 527 kts 44°
2026-04-21 14:04 21.06556 87.77796 34753 ft 527 kts 44°
2026-04-21 14:05 21.11649 87.83416 34756 ft 527 kts 44°
2026-04-21 14:05 21.16743 87.89036 34736 ft 514 kts 44°
2026-04-21 14:06 21.21693 87.94499 34743 ft 509 kts 43°
2026-04-21 14:06 21.26587 87.99902 34752 ft 508 kts 44°
2026-04-21 14:07 21.31502 88.05336 34747 ft 507 kts 44°
2026-04-21 14:07 21.33977 88.08073 34214 ft 515 kts 44°
2026-04-21 14:07 21.36469 88.10832 33568 ft 514 kts 44°
2026-04-21 14:07 21.38959 88.13591 32830 ft 515 kts 44°
2026-04-21 14:08 21.41447 88.16349 32088 ft 515 kts 44°
2026-04-21 14:08 21.43935 88.19108 31346 ft 515 kts 44°
2026-04-21 14:08 21.46435 88.21883 30565 ft 517 kts 44°
2026-04-21 14:08 21.48934 88.24658 29702 ft 519 kts 44°
2026-04-21 14:09 21.51456 88.27458 28648 ft 522 kts 44°
2026-04-21 14:09 21.54078 88.30096 28014 ft 512 kts 33°
2026-04-21 14:09 21.57124 88.31959 27408 ft 499 kts 18°
2026-04-21 14:09 21.60396 88.33046 26834 ft 488 kts 11°
2026-04-21 14:10 21.63668 88.33968 26222 ft 483 kts 10°
2026-04-21 14:10 21.66903 88.34864 25627 ft 479 kts 10°
2026-04-21 14:10 21.70123 88.35767 25009 ft 476 kts 11°
2026-04-21 14:10 21.73303 88.36678 24412 ft 473 kts 11°
2026-04-21 14:11 21.76455 88.37599 23801 ft 463 kts 11°
2026-04-21 14:11 21.79485 88.38497 23311 ft 450 kts 11°
2026-04-21 14:11 21.82457 88.39387 23185 ft 426 kts 11°
2026-04-21 14:11 21.85247 88.40223 22978 ft 410 kts 11°
2026-04-21 14:12 21.87921 88.41020 22525 ft 400 kts 11°
2026-04-21 14:12 21.90630 88.41824 21825 ft 397 kts 11°
2026-04-21 14:12 21.93284 88.42609 21116 ft 394 kts 11°
2026-04-21 14:12 21.95914 88.43388 20513 ft 389 kts 11°
2026-04-21 14:13 21.98500 88.44157 19945 ft 383 kts 11°
2026-04-21 14:13 22.00195 88.44661 19561 ft 380 kts 11°
2026-04-21 14:13 22.03551 88.45660 18797 ft 374 kts 11°
2026-04-21 14:13 22.05239 88.46163 18429 ft 374 kts 11°
2026-04-21 14:14 22.07745 88.46909 18054 ft 372 kts 12°
2026-04-21 14:14 22.11016 88.47885 17646 ft 365 kts 12°
2026-04-21 14:14 22.12670 88.48378 17253 ft 366 kts 11°
2026-04-21 14:14 22.15132 88.49111 16643 ft 369 kts 11°
2026-04-21 14:15 22.18425 88.50092 15847 ft 373 kts 12°
2026-04-21 14:15 22.20119 88.50598 15433 ft 373 kts 12°
2026-04-21 14:15 22.23385 88.51576 14648 ft 364 kts 12°
2026-04-21 14:16 22.23954 88.51747 14513 ft 362 kts 12°
2026-04-21 14:16 22.24549 88.51925 14370 ft 361 kts 12°
2026-04-21 14:16 22.26429 88.52488 13914 ft 356 kts 12°
2026-04-21 14:16 22.28794 88.53192 13338 ft 350 kts 11°
2026-04-21 14:17 22.31156 88.53674 12694 ft 342 kts
2026-04-21 14:17 22.33515 88.53933 12143 ft 340 kts
2026-04-21 14:17 22.35861 88.54129 11928 ft 340 kts
2026-04-21 14:17 22.38305 88.54331 11712 ft 362 kts
2026-04-21 14:18 22.40850 88.54557 11470 ft 371 kts
2026-04-21 14:18 22.43424 88.54805 11228 ft 370 kts
2026-04-21 14:18 22.45973 88.55065 10980 ft 367 kts
2026-04-21 14:18 22.48515 88.55331 10721 ft 365 kts
2026-04-21 14:19 22.50994 88.55594 10632 ft 352 kts
2026-04-21 14:19 22.53390 88.55850 10478 ft 340 kts
2026-04-21 14:19 22.55707 88.56097 10330 ft 329 kts
2026-04-21 14:19 22.57957 88.56336 10192 ft 320 kts
2026-04-21 14:20 22.60132 88.56566 10063 ft 310 kts
2026-04-21 14:20 22.62256 88.56790 9936 ft 301 kts
2026-04-21 14:20 22.64311 88.57008 9816 ft 293 kts
2026-04-21 14:20 22.66313 88.57219 9654 ft 286 kts
2026-04-21 14:21 22.68294 88.57428 9349 ft 286 kts
2026-04-21 14:21 22.70268 88.57637 9067 ft 283 kts
2026-04-21 14:21 22.72177 88.57830 9007 ft 266 kts
2026-04-21 14:21 22.73947 88.58005 8887 ft 246 kts
2026-04-21 14:22 22.75581 88.58165 8746 ft 226 kts
2026-04-21 14:22 22.77090 88.58313 8616 ft 209 kts
2026-04-21 14:22 22.78517 88.58451 8213 ft 208 kts
2026-04-21 14:22 22.79919 88.58587 8023 ft 199 kts
2026-04-21 14:23 22.81265 88.58719 7910 ft 191 kts
2026-04-21 14:23 22.82595 88.58848 7833 ft 195 kts
2026-04-21 14:23 22.83966 88.58980 7757 ft 201 kts
2026-04-21 14:23 22.85374 88.59130 7602 ft 206 kts
2026-04-21 14:24 22.86790 88.59353 7407 ft 205 kts
2026-04-21 14:24 22.88203 88.59588 7193 ft 206 kts
2026-04-21 14:24 22.89615 88.59820 6976 ft 204 kts
2026-04-21 14:24 22.91001 88.60047 6765 ft 200 kts
2026-04-21 14:25 22.92369 88.60269 6563 ft 198 kts
2026-04-21 14:25 22.93739 88.60490 6372 ft 200 kts
2026-04-21 14:25 22.95141 88.60547 5916 ft 207 kts 339°
2026-04-21 14:25 22.96264 88.59714 5615 ft 193 kts 301°
2026-04-21 14:26 22.96642 88.58396 5399 ft 180 kts 267°
2026-04-21 14:26 22.96300 88.57129 5200 ft 177 kts 238°
2026-04-21 14:26 22.95392 88.56230 5019 ft 181 kts 210°
2026-04-21 14:26 22.94236 88.55643 4840 ft 186 kts 207°
2026-04-21 14:27 22.93059 88.55054 4628 ft 187 kts 207°
2026-04-21 14:27 22.91888 88.54471 4417 ft 184 kts 207°
2026-04-21 14:27 22.90735 88.53897 4209 ft 180 kts 206°
2026-04-21 14:27 22.89630 88.53350 4200 ft 172 kts 206°
2026-04-21 14:28 22.88501 88.52789 4081 ft 181 kts 206°
2026-04-21 14:28 22.87345 88.52214 3902 ft 184 kts 207°
2026-04-21 14:28 22.86302 88.51430 3700 ft 183 kts 221°
2026-04-21 14:28 22.85339 88.50543 3506 ft 180 kts 220°
2026-04-21 14:29 22.84408 88.49682 3308 ft 176 kts 220°
2026-04-21 14:29 22.83475 88.48818 3124 ft 173 kts 220°
2026-04-21 14:29 22.82578 88.47978 2956 ft 173 kts 220°
2026-04-21 14:29 22.81649 88.47141 2776 ft 175 kts 210°
2026-04-21 14:30 22.80487 88.46778 2529 ft 174 kts 192°
2026-04-21 14:30 22.79332 88.46500 2291 ft 166 kts 192°
2026-04-21 14:30 22.78243 88.46302 2080 ft 153 kts 188°
2026-04-21 14:30 22.77201 88.46162 1928 ft 151 kts 186°
2026-04-21 14:31 22.76146 88.46035 1718 ft 151 kts 186°
2026-04-21 14:31 22.75140 88.45916 1526 ft 141 kts 185°
2026-04-21 14:31 22.74190 88.45803 1346 ft 136 kts 184°
2026-04-21 14:31 22.73241 88.45693 1190 ft 139 kts 184°
2026-04-21 14:32 22.72276 88.45579 999 ft 140 kts 186°
2026-04-21 14:32 22.71333 88.45467 843 ft 134 kts 185°
2026-04-21 14:32 22.70375 88.45355 717 ft 141 kts 186°
2026-04-21 14:32 22.69372 88.45218 564 ft 148 kts 184°
2026-04-21 14:33 22.68342 88.45111 332 ft 148 kts 183°
2026-04-21 14:33 22.67394 88.45005 98 ft 141 kts 184°
2026-04-21 14:33 22.66600 88.44923 27 ft 124 kts 185°
2026-04-21 14:33 22.65962 88.44841 28 ft 62 kts 186°
2026-04-21 14:34 22.65603 88.44798 29 ft 48 kts 186°
2026-04-21 14:34 22.65286 88.44762 28 ft 43 kts 186°
2026-04-21 14:34 22.65001 88.44713 24 ft 40 kts 197°
2026-04-21 14:34 22.64822 88.44604 27 ft 19 kts 214°
2026-04-21 14:35 22.64737 88.44541 25 ft 7 kts 214°
2026-04-21 14:35 22.64696 88.44512 26 ft 7 kts 214°
2026-04-21 14:35 22.64655 88.44485 27 ft 7 kts 204°
2026-04-21 14:35 22.64608 88.44474 27 ft 8 kts 188°
2026-04-21 14:36 22.64546 88.44466 28 ft 11 kts 182°
2026-04-21 14:36 22.64460 88.44457 27 ft 14 kts 187°
2026-04-21 14:36 22.64351 88.44444 28 ft 17 kts 186°
2026-04-21 14:36 22.64224 88.44429 28 ft 19 kts 191°
2026-04-21 14:37 22.64168 88.44326 27 ft 10 kts 259°
2026-04-21 14:37 22.64168 88.44240 27 ft 13 kts 275°
2026-04-21 14:37 22.64178 88.44130 28 ft 16 kts 275°
2026-04-21 14:37 22.64185 88.44073 28 ft 7 kts 276°
2026-04-21 14:38 22.64188 88.44047 28 ft 2 kts 277°
2026-04-21 14:38 22.64189 88.44036 28 ft 0 kts 277°